TimeEDT,TemperatureF,Dew PointF,Humidity,Sea Level PressureIn,VisibilityMPH,Wind Direction,Wind SpeedMPH,Gust SpeedMPH,PrecipitationIn,Events,Conditions,WindDirDegrees,DateUTC
12:53 AM,69.1,64.9,87,29.97,10.0,South,5.8,-,N/A,,Clear,190,2013-05-30 04:53:00
1:53 AM,68.0,64.0,87,29.98,10.0,South,5.8,-,N/A,,Clear,190,2013-05-30 05:53:00
2:53 AM,70.0,64.0,81,29.98,10.0,SSW,8.1,-,N/A,,Clear,200,2013-05-30 06:53:00
3:53 AM,70.0,63.0,78,29.98,10.0,SSW,8.1,-,N/A,,Clear,200,2013-05-30 07:53:00
4:53 AM,68.0,63.0,84,29.98,10.0,South,6.9,-,N/A,,Clear,190,2013-05-30 08:53:00
5:53 AM,66.9,62.1,84,29.99,10.0,South,6.9,-,N/A,,Clear,190,2013-05-30 09:53:00
6:53 AM,69.1,62.1,78,30.00,10.0,South,8.1,-,N/A,,Clear,180,2013-05-30 10:53:00
7:53 AM,71.1,62.1,73,30.01,10.0,SSW,9.2,-,N/A,,Clear,200,2013-05-30 11:53:00
8:53 AM,73.9,63.0,68,30.01,10.0,SSW,9.2,-,N/A,,Clear,200,2013-05-30 12:53:00
9:53 AM,78.1,64.9,64,30.01,10.0,SSW,11.5,-,N/A,,Clear,200,2013-05-30 13:53:00
10:53 AM,80.1,66.9,64,30.00,10.0,South,10.4,17.3,N/A,,Clear,190,2013-05-30 14:53:00
11:53 AM,82.9,66.0,56,30.00,10.0,SSW,13.8,23.0,N/A,,Clear,210,2013-05-30 15:53:00
12:53 PM,84.0,66.0,55,29.99,10.0,SSW,12.7,20.7,N/A,,Scattered Clouds,200,2013-05-30 16:53:00
1:53 PM,84.9,66.9,55,29.97,10.0,South,13.8,20.7,N/A,,Partly Cloudy,190,2013-05-30 17:53:00
2:53 PM,77.0,71.1,82,29.96,2.5,WSW,10.4,20.7,0.07,Rain,Light Rain,240,2013-05-30 18:53:00
3:00 PM,78.8,69.8,74,29.97,10.0,SW,8.1,-,0.00,,Scattered Clouds,220,2013-05-30 19:00:00
3:53 PM,84.9,72.0,65,29.95,10.0,SSW,8.1,-,0.01,,Clear,200,2013-05-30 19:53:00
4:26 PM,75.2,68.0,78,29.94,2.0,SE,9.2,46.0,0.08,Rain,Light Rain,130,2013-05-30 20:26:00
4:35 PM,82.4,66.2,58,29.94,10.0,SSE,6.9,-,0.08,,Partly Cloudy,150,2013-05-30 20:35:00
4:53 PM,84.9,66.9,55,29.93,10.0,SW,19.6,25.3,0.08,,Clear,220,2013-05-30 20:53:00
5:04 PM,86.0,66.2,51,29.94,10.0,SW,17.3,29.9,N/A,,Clear,220,2013-05-30 21:04:00
5:53 PM,79.0,66.9,66,29.93,6.0,South,6.9,26.5,0.05,Rain,Light Rain,190,2013-05-30 21:53:00
6:53 PM,81.0,70.0,69,29.93,10.0,South,4.6,-,0.00,,Mostly Cloudy,190,2013-05-30 22:53:00
7:53 PM,80.1,69.1,69,29.94,10.0,SSE,10.4,-,0.00,,Scattered Clouds,150,2013-05-30 23:53:00
8:53 PM,73.0,66.0,79,29.94,10.0,SSE,6.9,-,0.01,,Partly Cloudy,150,2013-05-31 00:53:00
9:05 PM,71.6,62.6,73,29.97,1.8,WSW,10.4,44.9,0.13,Rain,Heavy Rain,250,2013-05-31 01:05:00
9:13 PM,71.6,62.6,73,29.97,4.0,SW,8.1,-,0.13,Rain,Light Rain,220,2013-05-31 01:13:00
9:53 PM,73.9,68.0,82,29.96,10.0,SE,10.4,-,0.14,Rain,Light Rain,140,2013-05-31 01:53:00
10:53 PM,72.0,64.9,78,29.96,10.0,SSE,9.2,-,0.00,,Clear,160,2013-05-31 02:53:00
11:53 PM,72.0,66.9,84,29.94,10.0,SSE,10.4,-,N/A,,Clear,160,2013-05-31 03:53:00